Kenai, AK

4:32 AM AKDT on May 29, 2017 (GMT -0800)
Crow ct | | Change Station

Elev 99 ft 60.55 °N, 151.20 °W | Updated 22 seconds ago

Light Rain
Light Rain
40.5 °F
Feels Like 40 °F
N
1.7
Wind Variable Wind from East

Today
High -- | Low -- °F
--% Chance of Precip.
Yesterday
High -- | Low -- °F
Precip. -- in
Pressure 29.84 in
Visibility 10.0 miles
Clouds Overcast 4000 ft
Windchill 40 °F
Dew Point 39 °F
Humidity 95%
Rainfall 0.00 in
Snow Depth Not available.
4:52 AM 11:13 PM
Waxing Crescent, 19% visible
METAR PAEN 291153Z AUTO 13003KT 10SM -RA OVC040 06/02 A2983 RMK AO2 RAB31 SLP105 P0000 60000 T00560022 10089 20050 53004 TSNO
Pressure 29.84 in
Visibility 10.0 miles
Clouds Overcast 4000 ft
Windchill 40 °F
Dew Point 39 °F
Humidity 95%
Rainfall 0.00 in
Snow Depth Not available.
4:52 AM 11:13 PM
Waxing Crescent, 19% visible
METAR PAEN 291153Z AUTO 13003KT 10SM -RA OVC040 06/02 A2983 RMK AO2 RAB31 SLP105 P0000 60000 T00560022 10089 20050 53004 TSNO

Get Severe Weather Alerts

Thanks for signing up!

Be on the lookout for a verification email in your inbox.

You'll start receiving the daily forecast at 6 AM.

×

10-Day Weather Forecast

Almanac

Astronomy

May. 29, 2017 Rise Set
Actual Time
Civil Twilight
Nautical Twilight
Astronomical Twilight
Moon
Length of Visible Light
Length of Day
Tomorrow will be .
, % of the Moon is Illuminated

Today's Extremes

State Highs State Lows

Community

WunderPhotos

Category 6

Welcome to Category 6. This is the collective home for Weather Underground's featured writeups by Dr. Jeff Masters (right), Bob Henson (left), Chris Burt, and other regular contributors.

Nearby

Air Quality

  Air Quality AQ Index Pollutant
Not available.

Snow Depth

Station Depth Elevation

Earthquake Activity

City Distance Mag. Time & Date
Minimum magnitude displayed is 2.5.

Coastal Water Temperatures

Place Temperature

Stations

Nearby Weather Stations

Station Location Temp. Windchill Dew Point Humidity Wind Precip. Elev Updated Type
                   

Watches & Warnings

There are currently no watches in effect.